Location: Asheville, NC
(35.6000°N, 82.5500°W)
Time: 09:36:19
(UTC-04:00)

AAUSAT CUBESAT 2 - Pass Details

Date: 15 March 2018
Orbit: 577 x 592 km, 97.5° (Epoch: 25 June)

Event Time Altitude Azimuth Distance (km) Brightness Sun altitude
Rises 20:21:26 0° 162° (SSE) 2,782 ? -9.7°
Reaches altitude 10° 20:23:34 10° 160° (SSE) 1,889 ? -10.1°
Maximum altitude 20:27:39 70° 77° (ENE) 621 ? -10.9°
Drops below altitude 10° 20:31:47 10° 353° (N) 1,912 ? -11.8°
Sets 20:33:57 0° 351° (N) 2,819 ? -12.2°
